EHI
48 43 39 37 29 27 32 34 30 25 20 19 17 13 10 8 6 6 5 4 3 3 3 3 3 4 4 3 2 1 0 0 0 0 0 1 2 2 2 1 1 0 0
49 49 50 48 42 37 38 40 37 32 25 20 17 13 10 9 8 6 5 3 3 2 2 2 3 4 5 4 3 2 1 1 1 1 1 1 2 3 3 3 1 0 0
51 54 57 56 52 46 46 48 47 41 32 24 19 15 11 10 9 8 6 5 3 2 1 1 1 3 5 6 5 3 3 3 4 3 3 3 4 4 5 4 2 0 0
57 57 57 57 55 50 49 51 51 45 38 31 24 18 13 11 9 9 8 7 5 3 1 1 1 2 4 5 6 5 5 5 6 5 3 4 5 5 5 4 2 0 0
65 62 59 59 58 54 51 52 50 45 40 36 29 20 14 10 6 6 8 8 6 5 5 4 2 1 1 3 4 5 5 5 5 4 2 2 3 4 5 3 2 0 0
68 65 63 63 61 57 53 52 50 45 41 38 31 22 15 9 3 2 4 5 6 8 9 8 3 0 0 1 2 2 2 2 3 2 1 1 2 3 4 3 2 1 1
70 68 68 68 66 60 55 54 53 50 45 42 36 29 21 12 3 0 1 2 5 7 9 9 5 2 1 1 1 1 1 0 1 1 1 0 1 2 2 2 2 2 2
70 70 70 71 69 65 60 57 58 56 52 48 44 37 29 18 5 0 0 1 2 4 5 6 5 3 2 2 2 2 2 1 0 0 0 0 0 1 1 1 1 1 2
67 67 68 70 70 67 63 59 59 58 53 48 45 40 34 22 7 0 0 0 1 2 2 2 3 2 1 1 1 1 2 1 0 0 0 0 0 0 0 0 0 0 1
59 58 59 62 63 63 60 56 54 54 48 40 37 38 35 23 9 1 0 1 2 3 2 1 0 0 0 0 0 0 1 1 0 0 0 0 0 0 0 0 0 0 0
46 47 48 49 49 50 51 49 48 46 41 34 32 33 32 23 10 2 0 1 2 2 1 1 0 0 0 0 0 0 0 0 0 0 0 0 0 0 0 0 0 0 0
33 35 37 36 34 35 39 40 38 35 31 27 25 25 24 19 11 3 0 0 1 1 0 0 0 0 0 0 0 0 0 0 0 0 0 0 0 0 0 0 1 1 1
21 23 24 24 23 25 29 31 29 25 20 17 16 16 15 13 10 4 1 0 0 0 0 0 0 0 0 0 0 0 0 0 0 0 0 0 0 0 0 0 0 1 1
13 13 14 14 16 18 21 22 20 15 12 10 10 10 10 9 7 5 2 0 0 0 0 0 0 0 0 0 0 0 0 0 0 0 0 0 0 0 0 0 0 0 1
9 9 9 9 10 12 14 13 11 8 6 6 6 6 6 5 3 2 1 0 0 0 0 0 0 0 0 0 0 0 0 0 0 0 0 0 0 0 0 0 0 0 0
5 5 5 6 7 7 8 6 4 2 1 1 2 2 2 1 0 0 0 0 0 0 0 0 0 0 0 0 0 0 0 0 0 0 0 0 0 0 0 0 0 0 0
2 1 2 3 4 4 4 4 2 1 0 0 0 0 0 0 0 0 0 0 0 0 0 0 0 0 0 0 0 0 0 0 0 0 0 0 0 0 0 0 0 0 0
1 0 0 1 2 2 2 2 2 1 0 0 0 0 0 0 0 0 0 0 0 0 0 0 0 0 0 0 0 0 0 0 0 0 0 0 0 0 0 0 0 0 0
0 0 0 1 1 1 1 1 1 1 0 0 0 0 0 0 0 0 0 0 0 0 0 0 0 0 0 0 0 0 0 0 0 0 0 0 0 0 0 0 0 0 0
0 0 0 0 0 0 0 0 0 0 0 0 0 0 0 0 0 0 0 0 0 0 0 0 0 0 0 0 0 0 0 0 0 0 0 0 0 0 0 0 0 0 0
0 0 0 0 0 0 0 0 0 0 0 0 0 0 0 0 0 0 0 0 0 0 0 0 0 0 0 0 0 0 0 0 0 0 0 0 0 0 0 0 0 0 0
0 0 0 0 0 0 0 0 0 0 0 0 0 0 0 0 0 0 0 0 0 0 0 0 0 0 0 0 0 0 0 0 0 0 0 0 0 0 0 0 0 0 0
0 0 0 0 0 0 0 0 0 0 0 0 0 0 0 0 0 0 0 0 0 0 0 0 0 0 0 0 0 0 0 0 0 0 0 0 0 0 0 0 0 0 0
0 0 0 0 0 0 0 0 0 0 0 0 0 0 0 0 0 0 0 0 0 0 0 0 0 0 0 0 0 0 0 0 0 0 0 0 0 0 0 0 0 0 0
0 0 0 0 0 0 0 0 0 0 0 0 0 0 0 0 0 0 0 0 0 0 0 0 0 0 0 0 0 0 0 0 0 0 0 0 0 0 0 0 0 0 0
0 0 0 0 0 0 0 0 0 0 0 0 0 0 0 0 0 0 0 0 0 0 0 0 0 0 0 0 0 0 0 0 0 0 0 0 0 0 0 0 0 0 0
Wind_Speed
11 10 9 9 8 7 6 6 5 5 5 6 6 6 6 6 5 5 4 4 5 4 4 4 4 3 2 2 2 2 2 2 3 3 2 1 1 2 2 3 4 5 6
10 9 8 8 8 8 8 7 6 6 6 6 6 6 7 7 6 6 6 5 5 5 5 4 4 4 4 3 3 3 3 3 3 4 3 3 4 4 4 5 5 6 5
11 10 9 8 8 9 8 7 7 7 7 7 7 7 7 6 7 7 7 6 5 6 5 5 5 5 5 4 4 4 3 4 3 4 4 4 3 4 4 4 6 5 7
12 11 10 10 9 8 7 7 8 8 8 7 7 7 7 7 7 7 7 7 6 6 6 6 6 6 6 5 5 5 5 4 4 4 4 4 4 4 3 4 4 4 5
11 11 11 10 9 8 8 7 7 8 9 8 7 8 7 7 8 8 7 8 7 7 7 6 7 9 9 7 6 4 4 4 4 4 5 4 4 3 3 3 4 3 4
10 10 9 9 9 9 8 8 8 8 8 8 8 8 8 9 9 10 7 6 5 6 7 7 8 9 11 13 13 11 8 7 6 5 5 5 5 4 3 3 3 4 4
9 9 9 10 10 9 10 9 9 9 8 7 8 8 8 8 9 10 11 6 6 5 6 6 8 10 9 9 12 15 14 15 14 9 9 9 7 6 5 5 4 5 5
7 7 7 7 8 8 8 8 8 7 7 7 7 7 7 8 10 11 11 8 7 7 7 7 8 8 9 8 8 9 10 11 13 13 12 12 11 8 7 7 7 7 7
4 4 4 5 5 5 6 6 6 6 6 6 6 7 7 7 10 12 11 6 7 8 9 9 10 9 12 12 9 9 9 9 12 16 17 17 17 15 9 5 6 6 8
3 2 3 3 3 4 4 4 4 4 5 5 6 6 7 7 9 12 12 6 7 7 7 8 12 12 12 11 9 9 11 10 9 10 10 13 14 14 16 11 9 9 8
4 4 3 3 3 3 2 2 2 3 4 4 4 5 5 7 9 13 14 7 7 6 6 6 6 8 11 11 10 9 12 10 8 8 8 8 9 10 11 12 12 11 11
6 5 3 3 1 2 2 2 2 2 3 3 4 5 4 5 6 9 13 12 9 6 6 6 5 7 8 9 9 12 14 12 9 9 9 9 8 8 8 10 13 14 13
5 4 4 3 2 2 1 1 1 2 2 3 3 3 3 3 2 6 9 10 11 7 7 9 10 11 11 9 13 15 12 9 9 10 11 10 9 8 8 7 9 11 13
6 4 3 3 2 2 2 1 0 0 1 1 2 2 2 2 2 2 1 3 6 7 7 9 11 14 13 13 13 11 10 11 11 11 10 9 8 7 7 7 7 7 9
4 3 2 1 2 1 0 1 0 0 0 1 2 2 2 2 1 2 2 2 3 3 4 6 8 8 8 8 8 8 8 8 10 10 10 9 9 8 8 7 7 7 8
4 4 3 2 1 1 1 1 2 2 3 4 4 3 2 2 2 3 5 6 7 5 4 7 8 9 10 10 9 8 8 8 8 8 9 9 9 9 8 7 7 8 8
4 4 4 3 3 3 2 2 1 2 4 6 7 7 6 5 5 7 8 8 8 5 5 8 9 8 8 9 8 8 8 8 7 7 8 8 8 8 7 7 7 7 8
5 4 4 4 4 4 3 4 3 3 3 2 5 8 8 8 9 10 8 6 6 6 6 8 8 8 7 7 8 8 8 7 6 7 7 7 7 7 7 7 7 8 8
6 4 4 4 4 4 4 4 4 4 4 4 4 2 4 6 8 9 6 5 7 7 7 7 7 7 7 7 7 7 7 7 7 7 7 7 7 7 7 7 7 10 9
4 5 5 5 5 5 5 5 5 5 6 5 5 5 4 4 5 5 4 4 6 7 7 7 7 8 8 7 8 7 7 7 7 7 7 7 6 6 7 8 7 7 7
7 6 6 6 5 5 5 5 6 6 6 6 6 6 6 6 7 7 6 5 6 7 7 8 8 8 8 7 7 8 9 8 7 7 7 7 7 6 6 7 7 7 7
8 7 7 6 5 5 5 6 6 6 7 8 6 6 7 6 7 7 7 7 7 7 8 8 8 8 8 8 7 7 8 8 8 8 8 7 6 7 6 6 6 6 6
7 8 7 6 6 5 5 5 5 6 6 7 7 7 7 6 7 7 7 7 7 7 7 7 8 9 8 7 7 7 7 8 7 8 8 8 7 7 6 6 8 8 7
8 8 8 7 6 6 6 6 6 7 7 7 7 7 7 7 7 8 8 7 8 8 8 8 9 12 14 10 7 6 6 7 8 8 10 9 9 8 7 7 7 8 8
7 7 8 7 7 7 6 6 6 6 7 7 7 7 8 7 7 7 8 8 10 9 11 10 8 9 11 12 11 9 8 7 7 8 9 8 10 10 9 9 8 8 8
7 7 6 6 6 6 6 6 6 7 6 7 7 7 8 8 8 8 7 8 9 9 9 9 10 12 12 10 11 10 8 8 8 8 8 8 9 9 9 8 10 9 9
Wind_Direction
184 189 188 185 192 194 195 187 184 171 164 166 182 188 190 193 192 200 233 216 205 222 235 226 222 250 276 284 262 251 248 248 268 288 293 294 229 244 242 246 260 249 231
185 185 189 184 188 194 195 189 181 179 180 184 191 196 203 202 195 199 221 226 210 217 229 234 229 231 222 246 268 269 261 248 246 268 278 273 255 234 229 231 254 264 260
184 182 185 185 191 196 196 188 183 183 189 193 197 203 210 209 201 204 213 227 226 224 225 229 231 234 235 234 242 257 267 268 244 252 264 260 251 245 240 242 253 255 263
184 185 187 190 191 196 198 193 189 189 194 199 200 206 210 215 211 208 210 217 227 230 229 229 232 233 232 231 241 240 248 261 264 259 258 257 249 237 222 232 254 247 252
182 186 188 187 188 191 194 195 193 192 201 202 204 209 212 216 219 213 213 218 219 227 231 231 234 236 235 233 242 240 247 248 256 258 258 260 257 255 248 245 259 266 257
179 187 187 184 188 195 196 196 197 198 204 199 204 212 215 222 215 207 207 230 225 228 235 236 240 235 233 231 236 240 239 244 253 260 268 266 266 265 266 267 266 269 272
183 189 187 186 190 194 199 199 203 202 204 205 206 212 219 223 214 201 205 221 239 243 245 246 253 253 236 228 229 233 239 241 236 241 255 259 264 267 270 270 265 263 262
184 188 187 189 194 194 198 201 203 202 204 209 213 217 223 224 209 204 205 219 238 246 247 248 249 257 260 251 245 238 231 234 231 230 238 246 250 250 250 253 256 264 260
172 185 182 180 185 190 205 209 202 202 207 210 213 220 226 226 207 203 199 221 236 245 248 249 247 248 249 248 249 251 251 248 245 237 225 230 235 240 239 248 253 257 263
125 129 122 132 165 182 195 208 201 202 212 217 219 220 226 229 209 203 199 223 240 248 251 251 249 248 251 244 241 248 252 252 255 261 244 239 241 242 233 228 237 246 254
69 85 99 119 141 158 174 179 197 208 213 221 232 230 233 234 217 205 201 217 239 251 258 260 260 254 246 246 243 248 253 258 264 261 258 248 238 234 230 223 220 227 238
51 50 61 74 98 139 141 159 176 211 233 233 244 252 247 242 230 211 205 215 234 252 264 273 289 306 290 271 259 257 259 261 262 261 259 255 250 244 235 227 218 218 224
51 47 39 49 51 41 97 166 191 213 234 253 255 261 267 271 247 217 209 223 237 249 269 282 293 294 293 280 260 257 257 255 253 254 254 253 251 250 247 239 229 223 224
49 44 35 31 37 28 11 22 19 305 273 292 306 306 308 314 4 29 296 256 260 261 273 287 290 280 270 265 266 259 246 244 245 251 254 255 253 252 251 248 242 233 232
31 29 24 32 26 29 6 339 321 46 270 271 300 311 319 323 357 351 324 311 307 306 307 287 279 277 272 267 262 257 251 245 242 244 250 255 256 256 254 249 248 242 238
17 7 349 347 7 317 264 233 209 215 206 215 231 251 279 250 254 282 283 275 274 280 286 276 276 275 275 276 275 272 265 257 253 251 251 250 251 250 252 253 254 251 248
3 356 341 341 335 318 319 317 306 240 232 238 240 243 245 259 271 276 279 287 283 264 259 268 272 275 277 279 281 283 283 280 273 265 261 259 257 256 254 254 258 259 257
345 354 336 339 340 334 336 327 315 311 303 284 242 231 235 246 260 268 277 297 286 263 265 275 279 281 281 283 285 285 286 289 286 282 277 271 265 258 259 255 252 254 257
340 339 343 332 317 316 319 317 318 323 322 316 315 268 229 254 269 273 270 270 285 293 296 297 296 298 299 299 300 299 297 294 292 290 285 281 276 271 266 261 258 259 254
319 318 316 315 315 320 326 330 333 332 326 327 331 342 351 320 302 296 280 279 291 299 303 306 308 308 307 305 302 299 298 296 297 293 288 284 284 282 275 269 266 264 258
330 323 304 306 316 328 335 335 334 328 328 332 333 349 353 328 320 321 323 319 316 316 317 316 314 310 308 307 307 307 306 301 299 298 297 295 293 288 284 280 277 274 270
320 320 322 324 327 335 336 326 323 327 330 331 332 334 336 328 326 325 328 330 330 328 326 322 316 313 314 313 311 310 309 308 309 309 304 301 300 293 289 287 285 280 277
310 314 318 323 326 330 321 323 330 332 333 334 333 333 334 332 328 328 327 326 324 321 320 320 318 316 318 318 318 315 312 310 313 314 310 303 298 295 292 287 286 288 282
315 320 323 329 332 330 335 343 346 342 337 338 339 336 333 331 329 329 330 328 323 318 317 318 317 318 321 323 319 321 324 324 321 318 314 305 300 295 292 286 281 278 278
324 331 333 335 337 341 347 348 344 343 341 341 340 336 331 330 330 333 335 329 325 323 323 321 316 317 323 330 330 328 331 332 326 321 311 302 296 293 290 289 285 282 278
335 338 339 344 350 351 347 344 347 352 351 346 344 341 337 334 333 334 332 330 329 326 324 322 322 327 330 328 328 330 328 324 320 315 306 296 292 290 292 289 288 285 282